TimeMDT,TemperatureF,Dew PointF,Humidity,Sea Level PressureIn,VisibilityMPH,Wind Direction,Wind SpeedMPH,Gust SpeedMPH,PrecipitationIn,Events,Conditions,WindDirDegrees,DateUTC
12:52 AM,50.0,50.0,100,30.14,10.0,West,5.8,-,0.01,,Clear,280,2013-07-01 06:52:00
1:52 AM,48.9,48.0,97,30.12,10.0,Calm,Calm,-,N/A,,Clear,0,2013-07-01 07:52:00
2:38 AM,46.4,46.4,100,30.41,2.5,Calm,Calm,-,N/A,,Partly Cloudy,0,2013-07-01 08:38:00
2:43 AM,46.4,44.6,93,30.41,1.0,ENE,3.5,-,N/A,,Mist,60,2013-07-01 08:43:00
2:52 AM,46.9,46.0,97,30.14,0.2,Calm,Calm,-,N/A,Fog,Fog,0,2013-07-01 08:52:00
3:52 AM,46.9,46.0,97,30.14,0.2,Calm,Calm,-,N/A,Fog,Fog,0,2013-07-01 09:52:00
4:52 AM,45.0,45.0,100,30.17,0.2,Calm,Calm,-,0.01,Fog,Fog,0,2013-07-01 10:52:00
5:37 AM,42.8,42.8,100,30.42,1.2,Calm,Calm,-,N/A,,Scattered Clouds,0,2013-07-01 11:37:00
5:41 AM,44.6,42.8,93,30.42,3.0,Calm,Calm,-,N/A,,Scattered Clouds,0,2013-07-01 11:41:00
5:52 AM,43.0,43.0,100,30.22,9.0,Calm,Calm,-,N/A,,Partly Cloudy,0,2013-07-01 11:52:00
6:52 AM,46.0,46.0,100,30.27,1.2,West,4.6,-,N/A,,Partly Cloudy,280,2013-07-01 12:52:00
7:00 AM,44.6,44.6,100,30.43,1.0,WNW,4.6,-,N/A,,Mist,300,2013-07-01 13:00:00
7:17 AM,46.4,46.4,100,30.43,0.2,WNW,3.5,-,N/A,Fog,Fog,300,2013-07-01 13:17:00
7:52 AM,48.0,46.9,96,30.27,0.2,West,3.5,-,N/A,Fog,Fog,260,2013-07-01 13:52:00
8:52 AM,51.1,50.0,96,30.25,1.8,Calm,Calm,-,N/A,,Overcast,0,2013-07-01 14:52:00
8:55 AM,51.8,51.8,100,30.43,3.0,Calm,Calm,-,N/A,,Overcast,0,2013-07-01 14:55:00
9:24 AM,53.6,51.8,94,30.43,10.0,Calm,Calm,-,N/A,,Partly Cloudy,0,2013-07-01 15:24:00
9:52 AM,60.1,51.1,72,30.21,10.0,NW,3.5,-,N/A,,Clear,320,2013-07-01 15:52:00
10:52 AM,64.0,51.1,63,30.18,10.0,Calm,Calm,-,N/A,,Clear,0,2013-07-01 16:52:00
11:52 AM,66.9,48.0,51,30.16,10.0,Calm,Calm,-,N/A,,Clear,0,2013-07-01 17:52:00
12:52 PM,71.1,46.0,41,30.12,10.0,Calm,Calm,-,N/A,,Clear,0,2013-07-01 18:52:00
1:52 PM,78.1,37.0,23,30.08,10.0,NNE,10.4,18.4,N/A,,Clear,20,2013-07-01 19:52:00
2:05 PM,77.0,37.4,24,30.34,10.0,ENE,17.3,23.0,N/A,Thunderstorm,Clear,60,2013-07-01 20:05:00
2:29 PM,75.2,42.8,31,30.33,10.0,East,18.4,28.8,N/A,Thunderstorm,Clear,80,2013-07-01 20:29:00
2:50 PM,73.4,46.4,38,30.35,10.0,ESE,18.4,24.2,N/A,,Clear,120,2013-07-01 20:50:00
2:52 PM,73.0,46.0,38,30.11,10.0,ESE,20.7,24.2,N/A,,Clear,120,2013-07-01 20:52:00
3:52 PM,75.9,46.9,36,30.07,10.0,ESE,15.0,20.7,N/A,,Clear,110,2013-07-01 21:52:00
4:52 PM,75.0,46.0,36,30.09,10.0,ESE,20.7,26.5,N/A,,Clear,110,2013-07-01 22:52:00
5:52 PM,68.0,46.0,45,30.11,10.0,East,21.9,29.9,N/A,,Clear,100,2013-07-01 23:52:00
6:52 PM,69.1,46.0,44,30.10,10.0,ESE,16.1,24.2,0.00,,Partly Cloudy,110,2013-07-02 00:52:00
7:52 PM,64.0,45.0,50,30.12,10.0,East,11.5,20.7,N/A,Thunderstorm,Mostly Cloudy,100,2013-07-02 01:52:00
8:17 PM,57.2,50.0,77,30.40,2.5,NNE,18.4,33.4,0.03,Rain-Thunderstorm,Heavy Thunderstorms and Rain,20,2013-07-02 02:17:00
8:33 PM,55.4,51.8,88,30.36,10.0,North,-9999.0,-,0.13,Rain-Thunderstorm,Light Thunderstorms and Rain,0,2013-07-02 02:33:00
8:49 PM,55.4,50.0,82,30.36,10.0,SE,5.8,-,0.13,,Scattered Clouds,130,2013-07-02 02:49:00
8:52 PM,55.9,50.0,80,30.17,10.0,SSE,4.6,-,0.13,,Partly Cloudy,150,2013-07-02 02:52:00
9:52 PM,55.9,48.9,77,30.17,10.0,SSE,9.2,-,N/A,,Clear,160,2013-07-02 03:52:00
10:52 PM,55.9,50.0,80,30.18,10.0,SW,5.8,-,N/A,,Overcast,230,2013-07-02 04:52:00
11:52 PM,54.0,51.1,90,30.17,10.0,WSW,5.8,-,0.00,,Partly Cloudy,240,2013-07-02 05:52:00